TimePDT,TemperatureF,Dew PointF,Humidity,Sea Level PressureIn,VisibilityMPH,Wind Direction,Wind SpeedMPH,Gust SpeedMPH,PrecipitationIn,Events,Conditions,WindDirDegrees,DateUTC
12:58 AM,50.7,48.9,94,30.12,10.0,South,4.6,-,N/A,,Overcast,180,2013-05-18 07:58:00
1:58 AM,51.1,48.6,91,30.12,10.0,South,5.8,-,N/A,,Overcast,170,2013-05-18 08:58:00
2:58 AM,50.5,48.4,92,30.10,10.0,South,3.5,-,N/A,,Overcast,190,2013-05-18 09:58:00
3:58 AM,51.4,47.1,85,30.12,10.0,SSW,8.1,-,N/A,,Overcast,200,2013-05-18 10:58:00
4:58 AM,50.5,46.6,86,30.12,10.0,South,6.9,-,N/A,,Overcast,190,2013-05-18 11:58:00
5:58 AM,49.8,47.5,92,30.12,10.0,South,4.6,-,N/A,,Overcast,180,2013-05-18 12:58:00
6:58 AM,50.7,47.5,89,30.12,10.0,South,4.6,-,N/A,,Overcast,180,2013-05-18 13:58:00
7:58 AM,52.3,46.8,81,30.14,10.0,SSW,5.8,-,N/A,,Overcast,210,2013-05-18 14:58:00
8:36 AM,51.8,48.2,88,30.13,10.0,South,6.9,-,N/A,Rain,Light Rain,190,2013-05-18 15:36:00
8:58 AM,53.1,48.6,85,30.16,10.0,SW,6.9,-,0.00,Rain,Light Rain,220,2013-05-18 15:58:00
9:53 AM,53.6,48.2,82,30.14,10.0,WSW,5.8,-,N/A,,Overcast,240,2013-05-18 16:53:00
9:58 AM,54.1,47.7,79,30.16,10.0,SW,4.6,-,0.00,,Overcast,220,2013-05-18 16:58:00
10:13 AM,55.4,48.2,77,30.14,10.0,SW,3.5,-,N/A,,Overcast,230,2013-05-18 17:13:00
10:29 AM,55.4,46.4,72,30.15,10.0,SW,6.9,-,N/A,Rain,Light Rain,230,2013-05-18 17:29:00
10:58 AM,55.0,47.1,75,30.17,10.0,SW,9.2,-,0.00,Rain,Light Rain,230,2013-05-18 17:58:00
11:03 AM,55.4,48.2,77,30.15,10.0,SW,9.2,-,N/A,Rain,Light Rain,230,2013-05-18 18:03:00
11:58 AM,54.1,48.2,80,30.17,10.0,Variable,4.6,-,0.01,Rain,Light Rain,0,2013-05-18 18:58:00
12:35 PM,55.4,46.4,72,30.17,10.0,West,4.6,-,N/A,,Overcast,260,2013-05-18 19:35:00
12:58 PM,55.4,48.2,77,30.19,10.0,Calm,Calm,-,0.00,,Overcast,0,2013-05-18 19:58:00
1:38 PM,53.6,48.2,82,30.18,10.0,South,8.1,-,N/A,Rain,Light Rain,170,2013-05-18 20:38:00
1:43 PM,53.6,48.2,82,30.18,10.0,South,8.1,-,N/A,Rain,Light Rain,170,2013-05-18 20:43:00
1:49 PM,53.6,48.2,82,30.18,10.0,South,8.1,-,N/A,,Overcast,170,2013-05-18 20:49:00
1:54 PM,53.6,48.2,82,30.18,10.0,South,6.9,-,N/A,,Overcast,170,2013-05-18 20:54:00
1:58 PM,53.6,48.9,84,30.19,10.0,South,6.9,-,0.00,,Overcast,180,2013-05-18 20:58:00
2:03 PM,55.4,50.0,82,30.18,10.0,SSW,6.9,-,N/A,,Overcast,200,2013-05-18 21:03:00
2:08 PM,55.4,48.2,77,30.18,10.0,SSW,9.2,-,N/A,,Overcast,210,2013-05-18 21:08:00
2:13 PM,55.4,48.2,77,30.18,10.0,SSW,8.1,-,N/A,,Overcast,210,2013-05-18 21:13:00
2:23 PM,55.4,48.2,77,30.18,10.0,SSW,8.1,-,N/A,,Overcast,210,2013-05-18 21:23:00
2:53 PM,59.0,48.2,67,30.19,10.0,SW,2.3,-,N/A,,Overcast,220,2013-05-18 21:53:00
2:58 PM,57.6,48.7,72,30.19,10.0,South,8.1,-,N/A,,Overcast,170,2013-05-18 21:58:00
3:08 PM,59.0,48.2,67,30.19,10.0,WSW,3.5,-,N/A,,Overcast,240,2013-05-18 22:08:00
3:18 PM,59.0,48.2,67,30.19,10.0,Variable,2.3,-,N/A,,Overcast,0,2013-05-18 22:18:00
3:33 PM,59.0,48.2,67,30.19,10.0,Calm,Calm,-,N/A,,Overcast,0,2013-05-18 22:33:00
3:43 PM,59.0,48.2,67,30.19,10.0,South,5.8,-,N/A,,Overcast,170,2013-05-18 22:43:00
3:53 PM,59.0,48.2,67,30.19,10.0,South,5.8,-,N/A,,Overcast,180,2013-05-18 22:53:00
3:58 PM,59.0,48.9,69,30.20,10.0,South,6.9,-,N/A,,Mostly Cloudy,180,2013-05-18 22:58:00
4:53 PM,59.0,48.2,67,30.20,10.0,SSE,5.8,-,N/A,,Overcast,160,2013-05-18 23:53:00
4:58 PM,58.8,48.2,68,30.22,10.0,SSE,5.8,-,N/A,,Overcast,160,2013-05-18 23:58:00
5:58 PM,58.6,48.7,70,30.22,10.0,SW,6.9,-,N/A,,Overcast,230,2013-05-19 00:58:00
6:48 PM,59.0,48.2,67,30.21,10.0,Calm,Calm,-,N/A,,Overcast,0,2013-05-19 01:48:00
6:58 PM,58.6,48.0,68,30.24,10.0,North,-9999.0,-,N/A,,Overcast,0,2013-05-19 01:58:00
7:14 PM,57.2,51.8,82,30.22,9.0,WSW,10.4,-,N/A,,Overcast,250,2013-05-19 02:14:00
7:15 PM,57.2,51.8,82,30.22,9.0,WSW,11.5,-,N/A,Rain,Light Rain,250,2013-05-19 02:15:00
7:30 PM,53.6,51.8,94,30.23,2.0,West,4.6,-,N/A,Rain,Rain,260,2013-05-19 02:30:00
7:35 PM,53.6,51.8,94,30.23,3.0,West,2.3,-,N/A,Rain,Rain,270,2013-05-19 02:35:00
7:50 PM,55.4,51.8,88,30.23,8.0,Calm,Calm,-,N/A,Rain,Light Rain,0,2013-05-19 02:50:00
7:58 PM,54.9,52.2,91,30.25,10.0,SSW,2.3,-,0.07,Rain,Light Rain,200,2013-05-19 02:58:00
8:08 PM,55.4,51.8,88,30.24,8.0,Calm,Calm,-,N/A,Rain,Light Rain,0,2013-05-19 03:08:00
8:29 PM,53.6,53.6,100,30.24,10.0,ESE,2.3,-,N/A,,Overcast,120,2013-05-19 03:29:00
8:39 PM,53.6,53.6,100,30.24,10.0,SE,2.3,-,N/A,Rain,Light Rain,130,2013-05-19 03:39:00
8:58 PM,53.8,53.4,99,30.27,10.0,ESE,2.3,-,0.01,Rain,Light Rain,120,2013-05-19 03:58:00
9:11 PM,53.6,53.6,100,30.26,10.0,SSE,2.3,-,N/A,,Overcast,150,2013-05-19 04:11:00
9:51 PM,53.6,53.6,100,30.27,10.0,East,1.2,-,N/A,,Overcast,100,2013-05-19 04:51:00
9:58 PM,53.8,53.6,99,30.29,10.0,SSE,3.5,-,0.00,,Overcast,160,2013-05-19 04:58:00
10:18 PM,53.6,53.6,100,30.28,10.0,South,2.3,-,N/A,,Overcast,190,2013-05-19 05:18:00
10:28 PM,53.6,53.6,100,30.28,10.0,South,2.3,-,N/A,,Overcast,190,2013-05-19 05:28:00
10:38 PM,53.6,53.6,100,30.27,10.0,SW,4.6,-,N/A,,Overcast,220,2013-05-19 05:38:00
10:58 PM,54.0,53.4,98,30.30,10.0,SW,4.6,-,N/A,,Overcast,220,2013-05-19 05:58:00
11:13 PM,53.6,51.8,94,30.28,10.0,WSW,5.8,-,N/A,,Overcast,250,2013-05-19 06:13:00
11:43 PM,53.6,51.8,94,30.28,10.0,West,2.3,-,N/A,,Overcast,270,2013-05-19 06:43:00
11:58 PM,53.6,52.2,95,30.31,10.0,West,4.6,-,N/A,,Overcast,260,2013-05-19 06:58:00